�������l�o���
Date,Time,MP-1(��Sv/h),MP-2(��Sv/h),MP-3(��Sv/h),MP-4(��Sv/h),MP-5(��Sv/h),MP-6(��Sv/h),MP-7(��Sv/h),MP-8(��Sv/h),����,����(m/s),���J
2024/06/26,00:00,0.499,0.767,0.484,0.949,0.695,0.316,0.550,0.507,�k��,3.6,��
2024/06/26,00:10,0.498,0.766,0.485,0.951,0.695,0.317,0.549,0.510,�k�k��,2.3,��
2024/06/26,00:20,0.498,0.767,0.487,0.948,0.694,0.316,0.550,0.509,���k��,4.3,��
2024/06/26,00:30,0.499,0.766,0.487,0.949,0.695,0.316,0.551,0.510,�k��,2.9,��
2024/06/26,00:40,0.499,0.765,0.485,0.947,0.695,0.316,0.551,0.508,�k��,4.0,��
2024/06/26,00:50,0.499,0.764,0.487,0.949,0.695,0.315,0.550,0.511,�k��,5.2,��
2024/06/26,01:00,0.499,0.768,0.485,0.950,0.696,0.316,0.551,0.509,�k�k��,2.6,��
2024/06/26,01:10,0.497,0.766,0.487,0.951,0.695,0.314,0.549,0.509,�k�k��,2.9,��
2024/06/26,01:20,0.497,0.766,0.486,0.947,0.693,0.315,0.549,0.509,�k��,2.0,��
2024/06/26,01:30,0.498,0.767,0.487,0.950,0.694,0.315,0.550,0.510,�k��,2.2,��
2024/06/26,01:40,0.496,0.765,0.486,0.948,0.697,0.315,0.549,0.509,���k��,5.8,��
2024/06/26,01:50,0.498,0.765,0.485,0.948,0.696,0.316,0.547,0.510,���k��,4.9,��
2024/06/26,02:00,0.497,0.765,0.485,0.951,0.694,0.317,0.550,0.509,���k��,4.1,��
2024/06/26,02:10,0.497,0.767,0.486,0.949,0.694,0.315,0.550,0.511,���k��,5.1,��
2024/06/26,02:20,0.498,0.765,0.485,0.951,0.695,0.315,0.550,0.510,���k��,5.6,��
2024/06/26,02:30,0.496,0.766,0.486,0.949,0.696,0.316,0.549,0.511,���k��,5.3,��
2024/06/26,02:40,0.499,0.767,0.486,0.949,0.696,0.317,0.550,0.511,���k��,6.2,��
2024/06/26,02:50,0.499,0.764,0.485,0.951,0.695,0.316,0.549,0.510,���k��,6.5,��
2024/06/26,03:00,0.496,0.764,0.486,0.951,0.694,0.315,0.550,0.509,���k��,7.1,��
2024/06/26,03:10,0.497,0.768,0.484,0.952,0.697,0.315,0.549,0.511,���k��,6.4,��
2024/06/26,03:20,0.497,0.766,0.485,0.950,0.695,0.315,0.549,0.509,�k��,5.4,��
2024/06/26,03:30,0.498,0.766,0.485,0.951,0.694,0.316,0.550,0.509,���k��,3.6,��
2024/06/26,03:40,0.498,0.765,0.485,0.950,0.695,0.315,0.549,0.511,���k��,3.1,��
2024/06/26,03:50,0.496,0.766,0.485,0.950,0.695,0.315,0.550,0.510,���k��,5.9,��
2024/06/26,04:00,0.498,0.766,0.485,0.949,0.696,0.315,0.549,0.510,�k��,5.9,��
2024/06/26,04:10,0.497,0.764,0.484,0.951,0.695,0.316,0.549,0.510,���k��,6.3,��
2024/06/26,04:20,0.498,0.766,0.484,0.950,0.695,0.314,0.548,0.511,���k��,7.6,��
2024/06/26,04:30,0.498,0.764,0.484,0.950,0.694,0.315,0.550,0.509,���k��,6.1,��
2024/06/26,04:40,0.496,0.764,0.485,0.951,0.695,0.315,0.550,0.510,���k��,8.1,��
2024/06/26,04:50,0.497,0.767,0.485,0.951,0.696,0.315,0.550,0.510,���k��,7.0,��
2024/06/26,05:00,0.497,0.766,0.485,0.953,0.692,0.315,0.549,0.512,���k��,8.3,��
2024/06/26,05:10,0.498,0.767,0.484,0.953,0.695,0.315,0.550,0.510,���k��,8.3,��
2024/06/26,05:20,0.498,0.767,0.484,0.951,0.696,0.315,0.549,0.510,��,7.1,��
2024/06/26,05:30,0.498,0.766,0.484,0.952,0.695,0.313,0.550,0.511,���k��,7.1,��
2024/06/26,05:40,0.498,0.765,0.485,0.951,0.695,0.314,0.547,0.511,���k��,7.0,��
2024/06/26,05:50,0.498,0.767,0.486,0.951,0.694,0.314,0.549,0.509,���k��,7.5,��
2024/06/26,06:00,0.497,0.765,0.486,0.952,0.695,0.315,0.550,0.510,���k��,10.2,��
2024/06/26,06:10,0.498,0.766,0.486,0.955,0.695,0.314,0.549,0.511,���k��,8.3,��
2024/06/26,06:20,0.498,0.766,0.485,0.954,0.695,0.314,0.548,0.511,���k��,9.6,��
2024/06/26,06:30,0.498,0.764,0.487,0.952,0.697,0.315,0.548,0.510,���k��,9.3,��
2024/06/26,06:40,0.499,0.766,0.485,0.952,0.695,0.315,0.549,0.510,���k��,10.3,��
2024/06/26,06:50,0.496,0.765,0.485,0.952,0.697,0.315,0.548,0.510,���k��,7.1,��
2024/06/26,07:00,0.497,0.763,0.485,0.953,0.696,0.314,0.548,0.510,���k��,6.7,��
2024/06/26,07:10,0.496,0.765,0.486,0.953,0.696,0.313,0.549,0.510,��,7.2,��
2024/06/26,07:20,0.499,0.765,0.485,0.953,0.695,0.314,0.549,0.511,���k��,10.9,��
2024/06/26,07:30,0.498,0.766,0.484,0.950,0.696,0.313,0.550,0.511,��,10.3,��
2024/06/26,07:40,0.498,0.766,0.484,0.953,0.697,0.313,0.547,0.512,��,11.6,��
2024/06/26,07:50,0.500,0.767,0.486,0.954,0.697,0.314,0.548,0.512,��,12.4,��
2024/06/26,08:00,0.498,0.768,0.486,0.956,0.697,0.313,0.547,0.513,���k��,12.2,��
2024/06/26,08:10,0.499,0.767,0.487,0.953,0.695,0.315,0.548,0.513,��,13.2,��
2024/06/26,08:20,0.499,0.766,0.485,0.952,0.698,0.314,0.549,0.509,��,11.5,��
2024/06/26,08:30,0.499,0.766,0.486,0.955,0.698,0.314,0.547,0.509,���k��,13.3,��
2024/06/26,08:40,0.498,0.767,0.485,0.951,0.698,0.313,0.550,0.510,��,12.8,��
2024/06/26,08:50,0.500,0.767,0.487,0.954,0.696,0.314,0.549,0.511,��,11.3,��
2024/06/26,09:00,0.500,0.768,0.487,0.956,0.697,0.314,0.548,0.511,��,13.9,��
2024/06/26,09:10,0.499,0.766,0.487,0.953,0.699,0.314,0.548,0.511,��,12.2,��
2024/06/26,09:20,0.499,0.768,0.486,0.956,0.698,0.315,0.549,0.510,��,10.2,��
2024/06/26,09:30,0.500,0.768,0.486,0.953,0.699,0.313,0.547,0.512,��,10.9,��
2024/06/26,09:40,0.499,0.770,0.486,0.958,0.698,0.314,0.548,0.511,���k��,11.8,��
2024/06/26,09:50,0.500,0.772,0.487,0.955,0.697,0.315,0.549,0.511,���k��,11.4,��
2024/06/26,10:00,0.501,0.770,0.486,0.956,0.697,0.314,0.549,0.513,���k��,7.9,��
2024/06/26,10:10,0.499,0.771,0.486,0.955,0.698,0.314,0.547,0.511,���k��,8.9,��
2024/06/26,10:20,0.500,0.770,0.487,0.957,0.700,0.314,0.548,0.511,���k��,8.7,��
2024/06/26,10:30,0.500,0.768,0.486,0.959,0.700,0.316,0.549,0.511,���k��,8.4,��
2024/06/26,10:40,0.500,0.769,0.487,0.958,0.699,0.315,0.550,0.511,���k��,9.6,��
2024/06/26,10:50,0.502,0.770,0.488,0.956,0.699,0.315,0.550,0.512,���k��,9.5,��
2024/06/26,11:00,0.502,0.770,0.488,0.960,0.701,0.314,0.550,0.512,���k��,8.5,��
2024/06/26,11:10,0.500,0.771,0.489,0.960,0.699,0.314,0.549,0.513,���k��,7.4,��
2024/06/26,11:20,0.501,0.767,0.488,0.958,0.699,0.314,0.550,0.514,���k��,7.8,��
2024/06/26,11:30,0.504,0.770,0.487,0.957,0.700,0.315,0.551,0.514,��,8.0,��
2024/06/26,11:40,0.503,0.771,0.487,0.960,0.699,0.313,0.551,0.513,��,9.0,��
2024/06/26,11:50,0.502,0.770,0.488,0.959,0.698,0.315,0.551,0.512,���k��,7.2,��
2024/06/26,12:00,0.504,0.770,0.488,0.961,0.701,0.316,0.550,0.512,���k��,7.3,��
2024/06/26,12:10,0.504,0.769,0.488,0.958,0.700,0.314,0.552,0.513,��,8.3,��
2024/06/26,12:20,0.506,0.771,0.489,0.960,0.701,0.315,0.550,0.514,��,8.5,��
2024/06/26,12:30,0.503,0.773,0.488,0.958,0.700,0.315,0.551,0.513,��,8.0,��
2024/06/26,12:40,0.503,0.770,0.489,0.958,0.701,0.316,0.551,0.514,�k��,4.4,��
2024/06/26,12:50,0.503,0.772,0.489,0.960,0.702,0.316,0.553,0.514,�k��,4.3,��
2024/06/26,13:00,0.504,0.773,0.489,0.962,0.701,0.317,0.553,0.515,���k��,3.0,��
2024/06/26,13:10,0.505,0.773,0.489,0.960,0.702,0.315,0.552,0.514,��,6.1,��
2024/06/26,13:20,0.505,0.772,0.488,0.962,0.703,0.317,0.553,0.514,���k��,6.3,��
2024/06/26,13:30,0.505,0.771,0.490,0.962,0.704,0.316,0.552,0.514,���k��,7.9,��
2024/06/26,13:40,0.502,0.771,0.489,0.960,0.704,0.317,0.552,0.513,���k��,6.9,��
2024/06/26,13:50,0.504,0.772,0.489,0.961,0.704,0.316,0.552,0.513,�k��,3.0,��
2024/06/26,14:00,0.503,0.773,0.489,0.960,0.704,0.316,0.552,0.514,�k��,7.5,��
2024/06/26,14:10,0.505,0.771,0.489,0.961,0.702,0.317,0.551,0.513,�k��,4.0,��
2024/06/26,14:20,0.505,0.771,0.490,0.961,0.702,0.315,0.550,0.514,���k��,3.0,��
2024/06/26,14:30,0.504,0.771,0.489,0.962,0.705,0.316,0.551,0.513,���k��,2.9,��
2024/06/26,14:40,0.503,0.771,0.490,0.962,0.703,0.315,0.550,0.514,��,4.4,��
2024/06/26,14:50,0.506,0.774,0.490,0.963,0.703,0.315,0.550,0.512,���k��,4.3,��
2024/06/26,15:00,0.505,0.774,0.488,0.964,0.703,0.317,0.551,0.514,�k,3.3,��
2024/06/26,15:10,0.503,0.772,0.487,0.962,0.704,0.317,0.554,0.515,�k�k��,2.0,��
2024/06/26,15:20,0.504,0.773,0.488,0.963,0.703,0.317,0.552,0.514,�k��,2.2,��
2024/06/26,15:30,0.504,0.771,0.488,0.961,0.704,0.315,0.553,0.514,��,3.7,��
2024/06/26,15:40,0.505,0.771,0.488,0.962,0.704,0.315,0.550,0.512,��,3.2,��
2024/06/26,15:50,0.505,0.770,0.489,0.962,0.703,0.315,0.550,0.512,���쓌,3.3,��
2024/06/26,16:00,0.503,0.770,0.487,0.963,0.702,0.316,0.550,0.511,��쓌,2.6,��
2024/06/26,16:10,0.505,0.771,0.489,0.963,0.704,0.315,0.550,0.511,��,2.8,��
2024/06/26,16:20,0.505,0.772,0.491,0.964,0.703,0.316,0.550,0.513,���쐼,0.6,��
2024/06/26,16:30,0.505,0.770,0.488,0.964,0.704,0.318,0.550,0.514,��,1.7,��
2024/06/26,16:40,0.505,0.770,0.489,0.962,0.702,0.317,0.550,0.514,���k��,3.9,��
2024/06/26,16:50,0.504,0.771,0.490,0.963,0.704,0.317,0.553,0.512,���k��,4.7,��
2024/06/26,17:00,0.504,0.771,0.490,0.963,0.702,0.317,0.552,0.513,��,4.5,��
2024/06/26,17:10,0.503,0.772,0.488,0.964,0.703,0.316,0.552,0.513,���k��,5.5,��
2024/06/26,17:20,0.504,0.770,0.489,0.964,0.703,0.317,0.551,0.512,�k��,2.0,��
2024/06/26,17:30,0.503,0.770,0.489,0.965,0.706,0.316,0.551,0.514,�k�k��,3.4,��
2024/06/26,17:40,0.505,0.773,0.490,0.962,0.704,0.316,0.551,0.515,�k��,4.4,��
2024/06/26,17:50,0.503,0.773,0.488,0.964,0.706,0.317,0.552,0.513,���k��,2.5,��
2024/06/26,18:00,0.505,0.771,0.489,0.965,0.705,0.318,0.552,0.513,�k��,5.6,��
2024/06/26,18:10,0.505,0.771,0.489,0.963,0.705,0.317,0.551,0.512,���k��,5.3,��
2024/06/26,18:20,0.504,0.773,0.489,0.963,0.702,0.316,0.551,0.512,�k��,4.0,��
2024/06/26,18:30,0.504,0.772,0.489,0.964,0.703,0.317,0.553,0.513,�k��,3.0,��
2024/06/26,18:40,0.504,0.772,0.488,0.963,0.703,0.317,0.551,0.512,�k�k��,3.4,��
2024/06/26,18:50,0.504,0.774,0.489,0.963,0.706,0.317,0.552,0.512,�k,3.4,��
2024/06/26,19:00,0.503,0.774,0.490,0.962,0.705,0.317,0.551,0.512,�k�k��,2.0,��
2024/06/26,19:10,0.504,0.775,0.490,0.964,0.704,0.317,0.551,0.513,�k��,2.3,��
2024/06/26,19:20,0.504,0.772,0.490,0.965,0.704,0.316,0.551,0.513,�k�k��,3.7,��
2024/06/26,19:30,0.503,0.775,0.489,0.967,0.705,0.317,0.551,0.511,�k�k��,3.6,��
2024/06/26,19:40,0.505,0.773,0.489,0.965,0.706,0.316,0.552,0.511,�k��,3.2,��
2024/06/26,19:50,0.505,0.772,0.489,0.964,0.704,0.316,0.552,0.513,�k�k��,3.3,��
2024/06/26,20:00,0.505,0.773,0.488,0.965,0.705,0.317,0.552,0.513,�k,5.5,��
2024/06/26,20:10,0.503,0.772,0.488,0.964,0.705,0.317,0.552,0.512,�k,5.9,��
2024/06/26,20:20,0.502,0.773,0.489,0.965,0.705,0.316,0.551,0.513,�k,4.9,��
2024/06/26,20:30,0.505,0.774,0.488,0.965,0.704,0.317,0.551,0.512,�k,4.9,��
2024/06/26,20:40,0.504,0.773,0.489,0.964,0.704,0.316,0.551,0.513,�k,3.6,��
2024/06/26,20:50,0.504,0.774,0.488,0.965,0.706,0.316,0.551,0.512,�k,3.3,��
2024/06/26,21:00,0.506,0.772,0.490,0.963,0.704,0.317,0.551,0.513,�k�k��,3.0,��
2024/06/26,21:10,0.504,0.774,0.489,0.966,0.704,0.315,0.551,0.513,�k,3.5,��
2024/06/26,21:20,0.503,0.774,0.490,0.964,0.706,0.316,0.552,0.512,�k��,1.7,��
2024/06/26,21:30,0.504,0.774,0.489,0.966,0.705,0.316,0.552,0.512,�k��,1.4,��
2024/06/26,21:40,0.503,0.774,0.489,0.963,0.705,0.316,0.550,0.512,�k��,2.5,��
2024/06/26,21:50,0.505,0.775,0.488,0.965,0.706,0.316,0.550,0.511,�k��,2.0,��
2024/06/26,22:00,0.504,0.772,0.489,0.965,0.704,0.317,0.551,0.512,���k��,1.2,��
2024/06/26,22:10,0.504,0.774,0.487,0.965,0.705,0.315,0.551,0.511,���k��,1.2,��
2024/06/26,22:20,0.506,0.774,0.488,0.965,0.705,0.316,0.551,0.511,-,CALM,��
2024/06/26,22:30,0.504,0.776,0.488,0.966,0.704,0.317,0.553,0.512,�k��,0.6,��
2024/06/26,22:40,0.504,0.772,0.486,0.966,0.705,0.316,0.550,0.511,���k��,0.8,��
2024/06/26,22:50,0.505,0.776,0.488,0.965,0.704,0.316,0.551,0.510,���쐼,1.5,��
2024/06/26,23:00,0.505,0.774,0.489,0.966,0.705,0.316,0.552,0.510,���쐼,2.2,��
2024/06/26,23:10,0.504,0.772,0.489,0.965,0.703,0.316,0.551,0.512,���쐼,2.0,��
2024/06/26,23:20,0.503,0.774,0.488,0.967,0.705,0.316,0.553,0.512,�쐼,1.7,��
2024/06/26,23:30,0.504,0.773,0.488,0.964,0.705,0.317,0.552,0.512,���쐼,0.9,��
2024/06/26,23:40,0.503,0.775,0.490,0.965,0.705,0.316,0.551,0.513,���쐼,1.2,��
2024/06/26,23:50,0.504,0.774,0.489,0.965,0.705,0.317,0.552,0.512,���쐼,1.4,��
